Weather History for KCIU - March, 2014

Change the Weather History Date:

Wednesday, March 5, 2014

  Actual Average (KANJ) Record (KANJ)
Temperature  
Mean Temperature 12 °F 22 °F  
Max Temperature 28 °F 31 °F 49 °F (1910)
Min Temperature -5 °F 14 °F -19 °F (1926)
Degree Days  
Heating Degree Days 54 43  
Month to date heating degree days 217  
Since 1 July heating degree days 6343  
Cooling Degree Days 0 0  
Month to date cooling degree days 0  
Year to date cooling degree days 0  
Moisture  
Dew Point -2 °F    
Average Humidity 72    
Maximum Humidity 100    
Minimum Humidity 31    
Precipitation  
Precipitation 0.00 in 0.06 in 0.76 in (1897)
Month to date precipitation 0.28  
Year to date precipitation 3.81  
Snow  
Snow 0.00 in 0.50 in 11.80 in (1964)
Month to date snowfall 2.7  
Since 1 July snowfall 102.9  
Snow Depth -    
Sea Level Pressure  
Sea Level Pressure 30.47 in    
Wind  
Wind Speed 5 mph (North)    
Max Wind Speed 13 mph    
Max Gust Speed -    
Visibility 10 miles    
Events      
T = Trace of Precipitation, MM = Missing Value Source: NWS Daily Summary

Daily Weather History Graph

Daily Weather History Graph

Search for Another Location

Airport or City:

Trip Planner

Search our weather history database for the weather conditions in past years. The results will help you decide how hot, cold, wet, or windy it might be!

Date:

Astronomy

Mar. 05, 2014 Rise Set
Actual Time 7:09 AM EST 6:29 PM EST
Civil Twilight 6:39 AM EST 6:59 PM EST
Nautical Twilight 6:04 AM EST 7:34 PM EST
Astronomical Twilight 5:30 AM EST 8:09 PM EST
Moon 9:17 AM EST (3/5) 11:56 PM EST (3/5)
Length of Visible Light 12h 20m
Length of Day
11h 20m
Waxing Crescent, 23% of the Moon is Illuminated
Mar 5
Waxing Crescent
Mar 8
First Quarter
Mar 16
Full
Mar 23
Last Quarter
Mar 30
New

Hourly Weather History & Observations

Time (EST) Temp. Windchill Dew Point Humidity Pressure Visibility Wind Dir Wind Speed Gust Speed Precip Events Conditions
12:15 AM 3.2 °F -7.8 °F 1.4 °F 92% 30.27 in 10.0 mi West 5.8 mph - N/A   Clear
12:35 AM 3.2 °F -7.8 °F 1.4 °F 92% 30.27 in 10.0 mi West 5.8 mph - N/A   Clear
12:55 AM 1.4 °F -9.9 °F 1.4 °F 100% 30.27 in 10.0 mi NW 5.8 mph - N/A   Clear
1:15 AM 1.4 °F -12.5 °F 1.4 °F 100% 30.28 in 10.0 mi WNW 8.1 mph - N/A   Clear
1:35 AM 1.4 °F -12.5 °F -0.4 °F 92% 30.28 in 10.0 mi WNW 8.1 mph - N/A   Clear
1:55 AM 1.4 °F -16.1 °F 1.4 °F 100% 30.29 in 10.0 mi NW 12.7 mph - N/A   Clear
2:15 AM 1.4 °F -12.5 °F -0.4 °F 92% 30.30 in 10.0 mi NW 8.1 mph - N/A   Clear
2:35 AM -0.4 °F -14.7 °F -0.4 °F 100% 30.31 in 10.0 mi NNW 8.1 mph - N/A   Clear
2:55 AM -0.4 °F -8.3 °F -2.2 °F 92% 30.31 in 10.0 mi NNW 3.5 mph - N/A   Clear
3:15 AM -0.4 °F -13.4 °F -2.2 °F 92% 30.31 in 10.0 mi NNW 6.9 mph - N/A   Clear
3:35 AM -0.4 °F -14.7 °F -2.2 °F 92% 30.32 in 10.0 mi NNW 8.1 mph - N/A   Clear
3:55 AM -2.2 °F -16.8 °F -4.0 °F 92% 30.32 in 10.0 mi NNW 8.1 mph - N/A   Clear
4:15 AM -2.2 °F -14.2 °F -4.0 °F 92% 30.33 in 10.0 mi North 5.8 mph - N/A   Clear
4:35 AM -2.2 °F -15.6 °F -5.8 °F 85% 30.34 in 10.0 mi North 6.9 mph - N/A   Clear
4:55 AM -2.2 °F -15.6 °F -5.8 °F 85% 30.35 in 10.0 mi North 6.9 mph - N/A   Clear
5:15 AM -2.2 °F -14.2 °F -5.8 °F 85% 30.36 in 10.0 mi NNW 5.8 mph - N/A   Clear
5:35 AM -2.2 °F -14.2 °F -5.8 °F 85% 30.37 in 10.0 mi North 5.8 mph - N/A   Clear
5:55 AM -4.0 °F -14.6 °F -5.8 °F 92% 30.38 in 10.0 mi North 4.6 mph - N/A   Clear
6:15 AM -4.0 °F -16.3 °F -5.8 °F 92% 30.40 in 10.0 mi NNW 5.8 mph - N/A   Clear
6:35 AM -5.8 °F -19.9 °F -7.6 °F 92% 30.41 in 10.0 mi NNW 6.9 mph - N/A   Clear
7:15 AM -5.8 °F -16.7 °F -7.6 °F 92% 30.43 in 10.0 mi NNW 4.6 mph - N/A   Clear
7:35 AM -5.8 °F -16.7 °F -7.6 °F 92% 30.44 in 10.0 mi North 4.6 mph - N/A   Clear
7:55 AM -2.2 °F -14.2 °F -5.8 °F 85% 30.45 in 10.0 mi North 5.8 mph - N/A   Clear
8:15 AM -2.2 °F -15.6 °F -4.0 °F 92% 30.46 in 10.0 mi NNE 6.9 mph - N/A   Clear
8:35 AM -0.4 °F -12.0 °F -2.2 °F 92% 30.47 in 10.0 mi NNE 5.8 mph - N/A   Clear
8:55 AM 1.4 °F -6.2 °F -2.2 °F 85% 30.49 in 10.0 mi North 3.5 mph - N/A   Clear
9:15 AM 1.4 °F -13.5 °F -2.2 °F 85% 30.49 in 10.0 mi NE 9.2 mph - N/A   Clear
9:35 AM 3.2 °F -11.3 °F -2.2 °F 78% 30.49 in 10.0 mi NE 9.2 mph - N/A   Clear
9:55 AM 5.0 °F -8.1 °F -0.4 °F 78% 30.50 in 10.0 mi NE 8.1 mph - N/A   Clear
10:15 AM 6.8 °F -5.9 °F -0.4 °F 72% 30.51 in 10.0 mi ENE 8.1 mph - N/A   Clear
10:35 AM 8.6 °F -2.6 °F -0.4 °F 67% 30.51 in 10.0 mi ENE 6.9 mph - N/A   Clear
10:55 AM 10.4 °F -0.4 °F -0.4 °F 62% 30.52 in 10.0 mi East 6.9 mph - N/A   Clear
11:15 AM 10.4 °F -0.4 °F -0.4 °F 62% 30.52 in 10.0 mi ENE 6.9 mph - N/A   Clear
11:35 AM 12.2 °F 0.7 °F -0.4 °F 57% 30.53 in 10.0 mi NE 8.1 mph - N/A   Clear
11:55 AM 14.0 °F 6.5 °F -0.4 °F 53% 30.53 in 10.0 mi ENE 4.6 mph - N/A   Clear
12:15 PM 14.0 °F 2.9 °F -0.4 °F 53% 30.53 in 10.0 mi NE 8.1 mph - N/A   Clear
12:35 PM 15.8 °F 8.6 °F -0.4 °F 49% 30.53 in 10.0 mi East 4.6 mph - N/A   Clear
12:55 PM 15.8 °F 7.2 °F -0.4 °F 49% 30.53 in 10.0 mi NE 5.8 mph - N/A   Clear
1:15 PM 19.4 °F - 1.4 °F 46% 30.53 in 10.0 mi Calm Calm - N/A   Clear
1:35 PM 23.0 °F - 3.2 °F 43% 30.53 in 10.0 mi Calm Calm - N/A   Clear
1:55 PM 28.4 °F - 5.0 °F 37% 30.53 in 10.0 mi Calm Calm - N/A   Clear
2:15 PM 24.8 °F - 1.4 °F 36% 30.53 in 10.0 mi Calm Calm - N/A   Clear
2:35 PM 24.8 °F - -0.4 °F 34% 30.52 in 10.0 mi Calm Calm - N/A   Clear
2:55 PM 21.2 °F - -0.4 °F 39% 30.53 in 10.0 mi Calm Calm - N/A   Clear
3:15 PM 24.8 °F - 1.4 °F 36% 30.53 in 10.0 mi Calm Calm - N/A   Clear
3:35 PM 28.4 °F - 1.4 °F 31% 30.53 in 10.0 mi Calm Calm - N/A   Clear
3:55 PM 28.4 °F - 1.4 °F 31% 30.54 in 10.0 mi Calm Calm - N/A   Clear
4:15 PM 24.8 °F - -0.4 °F 34% 30.54 in 10.0 mi Calm Calm - N/A   Clear
4:35 PM 19.4 °F 12.8 °F -0.4 °F 42% 30.54 in 10.0 mi North 4.6 mph - N/A   Clear
4:55 PM 21.2 °F 16.4 °F -0.4 °F 39% 30.53 in 10.0 mi ESE 3.5 mph - N/A   Clear
5:15 PM 21.2 °F 16.4 °F -2.2 °F 36% 30.54 in 10.0 mi SSE 3.5 mph - N/A   Clear
5:35 PM 19.4 °F 10.4 °F -2.2 °F 39% 30.54 in 10.0 mi SE 6.9 mph - N/A   Clear
5:55 PM 17.6 °F 10.7 °F -2.2 °F 42% 30.54 in 10.0 mi SE 4.6 mph - N/A   Clear
6:15 PM 15.8 °F - 1.4 °F 53% 30.55 in 10.0 mi Calm Calm - N/A   Clear
6:35 PM 14.0 °F - 3.2 °F 62% 30.55 in 10.0 mi Calm Calm - N/A   Clear
6:55 PM 12.2 °F 6.1 °F 1.4 °F 62% 30.56 in 10.0 mi WSW 3.5 mph - N/A   Clear
7:15 PM 10.4 °F 4.0 °F 3.2 °F 73% 30.56 in 10.0 mi SSW 3.5 mph - N/A   Clear
7:35 PM 10.4 °F 4.0 °F 3.2 °F 73% 30.56 in 10.0 mi SW 3.5 mph - N/A   Clear
7:55 PM 10.4 °F 4.0 °F 3.2 °F 73% 30.56 in 10.0 mi SW 3.5 mph - N/A   Clear
8:15 PM 8.6 °F - 3.2 °F 79% 30.56 in 10.0 mi Calm Calm - N/A   Clear
8:35 PM 6.8 °F - -0.4 °F 72% 30.56 in 10.0 mi Calm Calm - N/A   Clear
8:55 PM 3.2 °F - -0.4 °F 85% 30.56 in 10.0 mi Calm Calm - N/A   Clear
9:15 PM 1.4 °F - -4.0 °F 78% 30.56 in 10.0 mi Calm Calm - N/A   Clear
9:35 PM -0.4 °F - -5.8 °F 78% 30.55 in 10.0 mi Calm Calm - N/A   Clear
9:55 PM -0.4 °F - -5.8 °F 78% 30.55 in 10.0 mi Calm Calm - N/A   Clear
10:15 PM -2.2 °F - -4.0 °F 92% 30.55 in 10.0 mi Calm Calm - N/A   Clear
10:35 PM -2.2 °F -10.4 °F -5.8 °F 85% 30.55 in 10.0 mi SE 3.5 mph - N/A   Clear
10:55 PM -2.2 °F - -7.6 °F 78% 30.55 in 10.0 mi Calm Calm - N/A   Clear
11:15 PM -2.2 °F -10.4 °F -7.6 °F 78% 30.54 in 10.0 mi ESE 3.5 mph - N/A   Clear
11:35 PM -4.0 °F - -7.6 °F 85% 30.55 in 10.0 mi Calm Calm - N/A   Clear
11:55 PM -2.2 °F - -5.8 °F 85% 30.54 in 10.0 mi Calm Calm - N/A   Clear